[贈送] 香蕉牛奶千層

看板 Tainan
作者
時間
留言 226則留言,220人參與討論
推噓 205  ( 205推 0噓 21→ )
徵求類別: 贈送 地點: 東區(必填) 徵求內容: 對面親戚送了我一堆香蕉吃不完 拿來做成香蕉卡士達惹== 這次用水手牌強力粉 安佳鮮奶油 台糖的糖 義美鮮奶 我阿嬤賣的蛋 推文裡面隨便找7個 明天下午5點通知之後就可以來領取惹 請自備容器謝謝== https://imgur.com/yVtQ4Ba
https://imgur.com/PwkSMjc
阿可以的話幫我的FB或IG按個讚啦 https://www.instagram.com/zuzucrepe/ https://www.facebook.com/byYuly 沒有就算惹謝謝 ★以下為加強提醒請勿刪除★發文前請詳閱並遵守板規 私人 + 無涉及金錢任何事務 = [徵求] 不可重PO + 台南限定 + 謝禮有限額 1.面交地點請填區名或明顯地標,只填台南表示台南市內37個區皆可面交唷! 2.不可涉及金錢,非徵求交易使用 a.徵求物品時請文內說明提供物品交換或請好心人出借 b.以享優惠為主的揪團/合購/團報..等請改用[交易] c.謝禮回饋品價值需符合小額市價 (原則小於100元),勿假徵求真交易 3.票券、卡片類及收集類請推置底 4.勿徵求法規禁止項目以免觸法 5.不重覆主題的徵求文,10日一篇,比照交易文1-1-2處理。(視情節輕重違著可水桶) 重覆主題徵求文,一個月限一篇。如徵Line群組、寵物徵認養等。 不同帳號,相同內容視為同一篇。 -- ※ 發信站: 批踢踢實業坊(ptt.cc), 來自: 1.173.90.128 (臺灣) ※ 文章網址: https://www.ptt.cc/bbs/Tainan/M.1568818310.A.1C3.html
1Ffrothy2317: 推好心 09/18 22:52
2Ffrothy2317: 補充一下我沒有要領,謝謝 09/18 22:53
3Fchenyusyuan: 推!看起來很好吃>< 09/18 22:54
4Fsuncheer: 推 您的分享 09/18 22:56
5Fifive: 推,很想吃,看起來好好吃! 09/18 22:56
6Fujd10: 推~~選我選我~~ 09/18 22:57
7Fstupid52020: 也太有才華了 09/18 22:58
8Fanils: 香蕉耶~想吃 09/18 22:58
9Fmeard: 推推推!好想吃看看! 09/18 22:58
10Fputalulala: 推 好想吃! 09/18 22:59
11Fcckkyle: 推推 想試試看 如果有機會的話 09/18 23:00
12Flocust0923: 推~沒吃過香蕉口味的千層耶 09/18 23:02
13Fpinrannie: 推~想吃看看 09/18 23:02
14Filivepn: 推推 想吃 09/18 23:02
15Fnanzy: 推推推,口味好特別,想吃~~~ 09/18 23:04
16Fu9522046: 推 09/18 23:04
17Fphws: 推 看起來好好吃 09/18 23:06
18FKimnara: 一樣純推。 09/18 23:06
19Fsiangwei: 住台南東區推一個 但不用抽我感謝 09/18 23:07
20Fmisha23: 我想粗,謝謝~~~~ 09/18 23:07
21Fmeli1995: 推推看起來很好吃 09/18 23:07
22Fracings8837: == 09/18 23:08
23Fkansakiraru: 推,看起來好好吃! 09/18 23:08
24FMrYao: 香蕉我愛~~已按讚! 09/18 23:09
25Fabc292004: 推一個,看起來很厲害,想吃~!! 09/18 23:09
26FBeckyRon: 推!超愛香蕉牛奶!!! 09/18 23:10
27Fasa80183: 推 09/18 23:12
28Fkoyai: 推 09/18 23:12
29Fasa80183: 純推 09/18 23:12
30FDuowa: 推推 09/18 23:13
31FPeaceSan: 推推~~好心有好報^0^ 09/18 23:13
32Fshineystar: 推!看起來超好吃! 09/18 23:14
33Ffish2052: 推 09/18 23:14
34Flonelyawp: 推推 是yulymoon大大欸 想吃 09/18 23:15
35Ffs1118: 推推 想吃,流口水了~ 千層看起來真厲害! 09/18 23:16
36Fchimee: 推推,想吃想吃 09/18 23:17
37Fpuni52041: 推 09/18 23:17
38Folafbb: 推推 09/18 23:18
39Fmayday5jen: 好像不錯吃 推 09/18 23:18
40Fmoyue: 推香蕉千層!! 09/18 23:19
41Fariesapril: 哇,好想吃唷,幫推,不取,謝謝 09/18 23:20
42Fpool7592002: 推,很厲害的樣子:) 09/18 23:20
43Fwormwood0: 推!好想吃~~ 09/18 23:20
44Fgttap23: 喜歡香蕉牛奶! 09/18 23:21
45Fcrazyone: 請問是在職準備考試嗎推 09/18 23:21
46Fsaw123: 厲害 09/18 23:21
47Fcrazyone: 抱歉留錯 拜託幫刪除QQ 09/18 23:22
48Fav980207: 推! 09/18 23:22
49Fwennai: 純推 09/18 23:22
50Fk1128: 推 09/18 23:23
51Fmhtvpz: Nice 09/18 23:25
52Fgood840623: 推推~~ 09/18 23:25
53Fwill0107: 看起來好吃。推推 09/18 23:25
54FLC5: 推推~最愛香蕉 09/18 23:26
55Fovo831117: 推推好想吃!! 09/18 23:27
56Fvincent3768: 推 喜歡香蕉 09/18 23:28
57Fgfiba: 推 09/18 23:28
58FJDHorton: 推 09/18 23:28
59Fxzon71493: 推推推 09/18 23:28
60Fqttempt: 推,自己做過烘焙才知道您有毅力,想吃 09/18 23:30
61Fbsu77521: 推推 09/18 23:30
62Flegusta: 推 超愛香蕉口味~ 09/18 23:31
63Fhk568568: 推推 09/18 23:35
64Fmoto610: 推 09/18 23:36
65Fnewlife0227: 推~想要吃 09/18 23:38
66Fziyu0524: 推。喜歡香蕉 09/18 23:39
67Fgrassygreeny: 推 09/18 23:40
68Fgoy866a: 選我選我。超想吃 09/18 23:41
69Fshinblue: 推 選我選我!已按讚 09/18 23:41
70Fefun0242: 想吃蛋糕 推推 09/18 23:41
71Fjaku3621: 推推~選我選我 09/18 23:42
72Fjlsocl: 推推 09/18 23:43
73Fcloud711007: 推 想吃 09/18 23:44
74FBearAddPower: 推 看起來好好吃 09/18 23:45
75Fchenmingchih: 推,真的好吃! 09/18 23:46
76FCQB: 純推推 09/18 23:46
77Fxxpin: 好像很強 推一個 09/18 23:46
78Fmra2284: 雖然有拿過 還是想排 謝謝:) 09/18 23:51
79Fjo3xup6: 推好心 09/18 23:52
80Fukbread: 啊啊~~好喜歡甜點 尤其是千層! 09/18 23:53
81Fluka322605: 選我選我 09/18 23:53
82Fsunny0919: 推~我剛好明天生日XDD 09/18 23:56
83Fyoyo0830: 推~看起來好好吃 09/18 23:57
84Flockchan: 最愛香蕉 09/18 23:58
85FhstatX: 推推 09/18 23:58
86Fsone0326: 推推~看起來好好吃哦(  ̄  ̄ ) 09/18 23:58
87Fkilinchu: 推想吃~ 09/18 23:59
88Fditty0525: 推推~香蕉好吃! 09/19 00:00
89Ftaco: 好吃的感覺 09/19 00:05
90Ftokenfan: 選我選我 好久沒吃到美味千層了 09/19 00:05
91Fjs104: 推! 想吃 09/19 00:07
92Fsdfg014025xx: 推 好好吃的感覺! 09/19 00:10
93Ffuej: 今天剛好我生日 嗚嗚 09/19 00:10
94Fjudy1120: 推! 09/19 00:14
95Fpckck: 推推 想吃~ 09/19 00:14
96FLouiseO3O: 選我選我~看了好餓啊啊啊 09/19 00:14
97Firiver03: 推~ 09/19 00:15
98Fguahuan: 推好心 09/19 00:17
99FNoise1021: 想吃! 09/19 00:20
100Fstar83129: 推推 09/19 00:21
101Fminiqueenie: 推 一家三口都想吃 09/19 00:27
102Fwowbom: 推 選我選我 09/19 00:29
103Farro04999: 推 09/19 00:29
104Fweiweiarno: 推~ 09/19 00:30
105Fjeff1117: 推推 09/19 00:30
106Ffallmi: 推!喜歡卡士達醬! 09/19 00:32
107Fs9302422: 推推好想吃 09/19 00:32
108Fallornothing: 幸運兒就是我 嘿嘿 09/19 00:41
109Fmoonzone: 推個 09/19 00:42
110Fhonglin: 推推推推 09/19 00:45
111Fparis0102003: 推!想吃( > < ) 09/19 00:48
112Fgiowz021: 推 09/19 00:49
113Fbookstar07: 看起來好好吃 … 09/19 00:50
114Fyoyo3855433: 我我我 09/19 00:51
115Fandy9811506: 推 好餓 09/19 00:52
116Fmserway: 兄弟 選我~ 謝謝! 09/19 00:53
117Fadicw: 推,好好吃的感覺 09/19 01:02
118Fm19750117: 想吃推~ 09/19 01:03
119Fannwant: 推 09/19 01:04
120Fpoem1999: 好想吃!第一次留言希望抽中嗚嗚 09/19 01:06
121Fchangshing: 想要~~~~ 09/19 01:09
122FJackyPon: 好想吃啊啊啊!! 09/19 01:12
123Fchi70213: 推 09/19 01:14
124Fcsjh960023: 好強…純推 09/19 01:17
125Fzxc5426: 推~香蕉口味真特別 09/19 01:24
126Fchinij88: 推,感覺好吃 09/19 01:25
127Fm5907000: 推 09/19 01:27
128Fowl1229: 推!愛香蕉!想吃!謝謝你 09/19 01:45
129Fuznig: 推推! 09/19 01:46
130Fokada777: 推一個 沒吃過香蕉卡士達 09/19 02:01
131Foobbaoo: 推~ 09/19 02:18
132Fmiaumiau: 推推 家裡的孩子最喜歡千層啊! 09/19 02:24
133Fwonderpea: 推 09/19 02:32
134Fhsindy: 超愛千層,今天才吃了一個巧克力千層,拜託選我嗚嗚嗚 09/19 02:50
135Fa3611590: 推推 09/19 02:55
136Fs2252136: 推推。選我選我。我是愛吃千層的吃貨希望有機會獲得謝 09/19 03:03
137Fs2252136: 謝 09/19 03:03
138Firene6: 好想吃看看香蕉千層 09/19 03:11
139Fqq1217: 想吃,推推 09/19 03:15
140Feva510510: 推 看起來超好吃~~~ 09/19 03:18
141Ft53591: 推 09/19 04:29
142Fred565: 推原po超好心~純支持~XD 09/19 05:54
143Fgiveumyheart: 推好心 09/19 06:08
144FDet1024: 推一個 09/19 06:12
145Fcococococo: 大推好想吃吃看 09/19 06:17
146Fleoabcd4: 推推 想吃 09/19 06:26
147Famandear: 看起來好好吃,希望抽中 09/19 06:35
148Fjessy413026: 推推推 看起來好好吃啊! 09/19 06:40
149Fgojeanbili: 推推 想試試看 09/19 06:41
150Fohbee: 哇!看起來很好吃~推 09/19 06:45
151Fanowrong: 推推 好想吃 09/19 06:47
152Fwilly771116: 推 想吃 09/19 06:48
153Fnbhd0223: 推!想吃選我 09/19 06:53
154Ffurther: 推美味 09/19 06:53
155Fpenny83xx: 推 09/19 06:55
156Flinxchung: 推!好想吃 09/19 07:11
157Fdogdogs: 推好心 09/19 07:30
158Fsheng79526: 好有才 推推 09/19 07:30
159Fohmimino: 推推 09/19 07:33
160Fsammiezxc: 推推 09/19 07:36
161Fhun0614: 推,感覺是可愛的口味 09/19 07:36
162Fwanlis: 推推 09/19 07:38
163Foligne: 推推 09/19 08:01
164Fq920110: 推!看起來超好吃! 09/19 08:03
165Fshortbirdman: 選我選我~ 09/19 08:04
166Flovesigh: 好想吃吃看療癒甜食~~~ 09/19 08:04
167FMaNoJobs: 想吃~ 09/19 08:17
168FBarot: 推推 09/19 08:18
169Fzanwu: 推 09/19 08:26
170Fgayponpon: 東區想吃~推推! 09/19 08:39
171Fpinksky326: 推 09/19 08:43
172Fgibsonqoo: 推!孩子想吃成份單純營養的蛋糕 09/19 08:48
173Fnptrj: 太太我喜歡你 09/19 09:11
174Fbuzzisten: 推起來 09/19 09:14
175Fcheucheu: 推 09/19 09:24
176Fwav54321: 推 想吃 09/19 09:25
177Flovewenbabe: 推推好心大德分享~~ 09/19 09:26
178Furanus15: 推! 09/19 09:50
179Fj61004123: 台南版蛋糕妹嗎~~~ 09/19 10:06
180FLeonor0702: 推 超愛千層 09/19 10:15
181FBOBOyuan: 推推!看起來好好吃 09/19 10:20
182FFlynnZhang: 純推 09/19 10:25
183Fwithout126: 香蕉!!! 09/19 10:34
184Fben66677: 推 09/19 10:39
185Fiflost: 傳說中弄很久還是有塊的香蕉口味! 09/19 10:40
186Fdumpha: 推~ 09/19 10:48
187Fpanda520: 推 09/19 10:52
188Fa062693069: 推推,千層看起來超好吃,想吃! 09/19 11:01
189Fmsms1017: 推 好厲害 09/19 11:11
190FCing1106: 推~ 09/19 11:16
191Fwade333: 想吃 看起來很棒!!! 09/19 11:18
192FPMPCM: 推推~~ 09/19 11:26
193Fl19911025: 推!! 09/19 12:16
194Fimaguo: 東區推一個~ 09/19 12:22
195Feihi: 推 09/19 12:34
196Fmongaga: 推推,看起來太美味了吧! 09/19 12:39
197Fnu4329: 推 09/19 12:39
198Falissa: 推,好像吃 09/19 12:51
199Fjuzi: 香蕉的一定好吃,大推 09/19 12:51
200Fjustlovenba: 看起來很好吃~希望可以抽到我啦!謝謝 09/19 12:55
201Fjustlovenba: 推一個 09/19 12:55
202Fqbowo: 想吃~推 09/19 13:11
203Fblues927: 推推 09/19 13:32
204Fchi2707991: 推喔喔喔喔喔 東區推 09/19 13:48
205Fasd446650: 推!! 09/19 13:55
206Fwanlinchi: 推 09/19 13:58
207FAnncat: 推 09/19 14:09
208Faching882000: 純推佛心~ 09/19 14:11
209Fhihirae: 想吃~選我選我 09/19 14:13
210Fhurtlikehell: 推~~希望抽到 09/19 14:23
211Falwu: 推推,好想吃 09/19 14:29
212Fhaflower79: 超愛香蕉~~~想吃想吃 09/19 14:36
213Ftinggot: 推~看起來好好吃 09/19 14:58
214Ficeyuki: 推 09/19 15:18
215Fwst40416: 推!想吃 09/19 15:18
216Farielhi: 推 09/19 15:32
217Fgummie: 推推 09/19 15:51
218Fsunny37516: 推 想吃 09/19 15:57
219Famy415amy415: 推 09/19 16:06
220FJetinacn: == 09/19 16:09
221Faassdfg: 推推 09/19 16:21
222Fpipi0927: 看起來太好ㄘˉ惹啊啊啊啊啊 09/19 16:22
223Fhaflower79: 同是東區的香蕉控推!! 09/19 17:46
224FJax123: == 09/19 18:46
225Fpudding1023: 每次看文都覺得很有趣! 09/19 19:02
226Ffish120: 推,想吃 09/19 19:49

台南 熱門文章

31 文賢路的大猩猩
44 tainan andy00619 2019-10-22 14:29